User: anonymous
Location: Wilsall
(45.9940°N, 110.6590°W)
Time: 20:01:43
(UTC-06:00)
Language:

GP-B - Orbit

View from above orbital plane
View from above orbital plane
View from above satellite
View from above satellite

Ground track
Ground track

The orbit data is extracted from the following two-line orbital elements,

1 28230U 04014A   14257.10539355  .00000693  00000-0  94744-4 0  1514
2 28230 089.8868 138.7905 0003301 116.0794 244.0768 14.77623302560324
Epoch (UTC): 14 September 2014 02:31:46
Eccentricity: 0.0003301
inclination: 89.8868°
perigee height: 634 km
apogee height: 639 km
right ascension of ascending node: 138.7905°
argument of perigee: 116.0794°
revolutions per day: 14.77623302
mean anomaly at epoch: 244.0768°
orbit number at epoch: 56032

The dashed part of the orbit path shows where the satellite is in the earth's shadow,  

DLR